Flag for Bahrain Weather past 2 weeks in Riffa, Bahrain

Now
95 °F

Sunny.


Feels Like: 96 °F
Forecast: 87 / 100 °F
Wind: 6 mph from North

Location: Bahrain International Airport

Current Time: Jul 3, 2015 at 9:26:14 AM

Latest Report: Jul 3, 2015 at 8:00 AM


Visibility: 10 mi

Pressure: 29.56 "Hg

Humidity: 34%

Dew point: 63 °F

Location of RiffaLocation

Historic Weather in Riffa — Graph

°F

Riffa temperature yesterday

Maximum temperature yesterday: 97 °F (at 10:00 AM)
Minimum temperature yesterday: 90 °F (at 5:00 AM)
Average temperature yesterday: 93 °F

Past Weeks' High & Low Weather Summary

 TemperatureHumidityPressure
High106 °F (Jun 19, 12:00 PM)67% (Jun 19, 3:00 AM)29.65 "Hg (Jun 19, 3:00 AM)
Low88 °F (Jun 28, 4:00 AM)14% (Jun 24, 12:00 AM)29.42 "Hg (Jun 20, 6:00 PM)
Average95 °F38%29.53 "Hg
* Reported Jun 18 8:00 AM — Jul 3 8:00 AM, Riffa, Weather by CustomWeather, © 2015

Note: Actual official high and low records may vary slightly from our data, if they occured in-between our weather recording intervals... More about our weather records

Advertising

Riffa weather history for previous 24 hours

 ConditionsComfort  
Time TempWeatherWind HumidityBarometerVisibility
8:00 AM
Fri, Jul 3
95 °FSunny.6 mph34%29.56 "Hg10 mi
7:00 AM93 °FSunny.8 mph39%29.56 "Hg10 mi
6:00 AM91 °FPassing clouds.5 mph44%29.53 "HgN/A
5:00 AM91 °FPassing clouds.7 mph34%29.53 "HgN/A
4:00 AM91 °FClear.5 mph36%29.53 "Hg10 mi
3:00 AM91 °FPassing clouds.7 mph38%29.53 "HgN/A
2:00 AM91 °FClear.8 mph34%29.53 "Hg10 mi
1:00 AM90 °FPassing clouds.5 mph49%29.56 "HgN/A
12:00 AM91 °FPassing clouds.3 mph32%29.56 "HgN/A
11:00 PM
Thu, Jul 2
93 °FClear.2 mph32%29.56 "Hg10 mi
10:00 PM91 °FClear.1 mph32%29.56 "Hg10 mi
9:00 PM91 °FClear.1 mph34%29.56 "Hg10 mi
8:00 PM91 °FClear.1 mph44%29.56 "Hg10 mi
7:00 PM91 °FPassing clouds.3 mph44%29.56 "HgN/A
6:00 PM91 °FSunny.8 mph49%29.56 "Hg10 mi
5:00 PM93 °FSunny.12 mph47%29.56 "Hg10 mi
4:00 PM95 °FSunny.14 mph44%29.56 "Hg10 mi
3:00 PM95 °FPassing clouds.10 mph41%29.56 "HgN/A
2:00 PM97 °FSunny.20 mph39%29.56 "Hg10 mi
1:00 PM97 °FSunny.20 mph39%29.59 "Hg10 mi
12:00 PM97 °FSunny.22 mph39%29.59 "Hg10 mi
11:00 AM95 °FSunny.21 mph41%29.62 "Hg6 mi
10:00 AM97 °FSunny.22 mph34%29.62 "Hg6 mi
9:00 AM95 °FSunny.16 mph36%29.62 "Hg4 mi
Weather by CustomWeather, © 2015

See weather overviewHow to use our weather pages